#timestamp,LO_Frequency,Hit,StdDev 
1514235615.7,286047015.4,Y
1514235635.5,286047005.4,P
1514235655.3,286047007.0,P
1514235675.2,286047008.5,P
1514235695.0,286047010.4,Y
1514235695.9,286047010.4,P
1514235715.7,286047002.3,N
1514235735.6,286047001.9,N
1514235755.4,286047004.7,N
1514235775.2,286047004.5,N
1514235795.1,286047008.4,N
1514235796.0,286047008.4,N
1514235815.8,286047010.4,Y
1514235835.6,286047006.3,P
1514235855.5,286047009.1,P
1514235875.3,286047007.0,P
1514235895.1,286047005.6,Y
1514235915.9,286047001.1,P
1514235935.7,286047000.3,N
1514235955.5,286047005.6,N
1514235975.4,286047007.3,N
1514235995.2,286047008.5,N
1514236015.0,286047008.7,N
1514236015.9,286047008.7,N
1514236035.8,286047008.3,N
1514236055.6,286047010.9,Y
1514236075.4,286047006.5,P
1514236095.3,286047007.3,P
1514236115.1,286047009.9,P
1514236135.8,286047017.0,Y
1514236155.7,286047007.9,P
1514236175.5,286047006.5,P
1514236195.3,286047010.0,P
1514236215.2,286047013.7,Y
1514236235.9,286047002.0,P
1514236255.7,286046996.9,N
1514236275.6,286047005.4,N
1514236295.4,286047007.6,N
1514236315.2,286047003.1,N
1514236335.1,286047005.1,N
1514236336.0,286047005.1,N
1514236355.8,286047005.0,N
1514236375.6,286047003.8,N
1514236395.5,286047000.0,N
1514236415.3,286047001.4,N
1514236435.1,286047003.5,N
1514236455.8,286047003.5,N
1514236475.7,286047003.0,N
1514236495.5,286047009.2,Y
1514236515.3,286047002.0,P
1514236535.2,286046999.7,N
1514236555.0,286046998.4,N
1514236555.9,286046998.4,N
1514236575.7,286047002.6,N
1514236595.6,286047005.9,N
1514236615.4,286047000.9,N
1514236635.2,286046998.4,N
1514236655.1,286046995.2,N
1514236656.0,286046995.2,N
1514236675.8,286046990.2,Y
1514236695.6,286046987.3,P
1514236715.5,286046986.5,N
1514236735.3,286046983.0,N
1514236755.1,286046987.6,N
1514236775.9,286046987.0,N
1514236795.7,286046984.1,N
1514236815.5,286046987.6,N
1514236835.4,286046991.4,N
1514236855.2,286046991.5,N
1514236875.0,286046989.3,N
1514236875.9,286046989.3,N
1514236895.8,286046983.4,Y
1514236915.6,286046992.0,P
1514236935.4,286046990.9,P
1514236955.3,286046990.7,P
1514236975.1,286046988.8,Y
1514236976.0,286046988.8,P
1514236995.8,286046996.5,P
1514237015.7,286046999.6,N
1514237035.5,286046998.2,N
1514237055.3,286046998.9,N
1514237075.1,286046996.9,N
1514237095.9,286046995.9,N
1514237115.7,286046995.6,N
1514237135.5,286046994.2,N
1514237155.4,286046994.0,N
1514237175.2,286046991.1,N
1514237195.0,286046989.5,Y
1514237195.9,286046989.5,P
1514237215.8,286046992.8,N
1514237235.6,286046993.1,P
1514237255.4,286046991.4,Y
1514237275.3,286046993.4,P
1514237295.1,286046994.3,P
1514237315.8,286046990.3,P
1514237335.7,286046991.3,Y
1514237355.5,286047000.9,P
1514237375.3,286047002.4,N
1514237395.2,286047002.1,N
1514237415.9,286046999.9,N
1514237435.7,286047000.7,N
1514237455.6,286047002.5,N
1514237475.4,286047004.4,N
1514237495.2,286047002.4,N
1514237515.1,286047001.0,N
1514237516.0,286047001.0,N
1514237535.8,286046999.0,N
1514237555.6,286046996.7,N
1514237575.5,286046996.9,N
1514237595.3,286046999.8,N
1514237615.1,286047000.0,N
1514237635.8,286047000.7,N
1514237655.7,286046997.1,N
1514237675.5,286046996.8,N
1514237695.3,286047002.4,N
1514237715.2,286047000.1,N
1514237735.9,286046997.9,N
1514237755.7,286046993.9,N
1514237775.6,286046992.0,N
1514237795.4,286046990.2,Y
1514237815.2,286046994.0,P
1514237835.1,286046997.1,N
1514237836.0,286046997.1,N
1514237855.8,286046999.1,N
1514237875.6,286047001.1,N
1514237895.5,286047006.5,N
1514237915.3,286047007.9,N
1514237935.1,286047006.3,N
1514237955.9,286047008.1,N
1514237975.7,286047007.0,N
1514237995.5,286047007.5,N
1514238015.3,286047008.6,N
1514238035.2,286047007.0,N
1514238055.0,286047005.9,N
1514238055.9,286047005.9,N
1514238075.7,286047005.3,N
1514238095.6,286047010.3,N
1514238115.4,286047012.3,N
1514238135.2,286047008.0,N
1514238155.1,286047010.9,N
1514238156.0,286047010.9,N
1514238175.8,286047011.3,N
1514238195.6,286047012.5,N
1514238215.5,286047007.7,N
1514238235.3,286047010.4,N
1514238255.1,286047007.9,N
1514238275.9,286047012.3,N
1514238295.7,286047008.0,N
1514238315.5,286047009.1,N
1514238335.3,286047007.3,N
1514238355.2,286047008.1,N
1514238375.0,286047008.2,N
1514238375.9,286047008.2,N
1514238395.7,286047008.4,N
1514238415.6,286047008.7,Y
1514238435.4,286047000.2,P
1514238455.2,286047002.6,N
1514238475.1,286047003.6,N
1514238476.0,286047003.6,N
1514238495.8,286047003.5,N
1514238515.6,286047007.6,Y
1514238535.5,286047002.3,P
1514238555.3,286047004.8,P
1514238575.1,286047010.4,P
1514238595.9,286047011.4,Y
1514238615.7,286047013.5,P
1514238635.5,286047011.1,N
1514238655.4,286047010.9,P
1514238675.2,286047007.9,N
1514238695.0,286047010.5,Y
1514238695.9,286047010.5,P
1514238715.8,286046996.2,P
1514238735.6,286046996.2,N
1514238755.4,286046991.7,N
1514238775.3,286046992.1,N
1514238795.1,286046988.5,N
1514238815.8,286046986.9,N
1514238835.7,286046985.7,N
1514238855.5,286046985.5,N
1514238875.3,286046986.5,N
1514238895.2,286046987.8,N
1514238915.9,286046987.8,N
1514238935.7,286046985.8,N
1514238955.6,286046980.9,N
1514238975.4,286046979.1,N
1514238995.2,286046975.8,N
1514239015.0,286046975.7,N
1514239015.9,286046975.7,N
1514239035.8,286046981.5,N
1514239055.6,286046979.0,N
1514239075.4,286046979.0,N
1514239095.3,286046977.4,N
1514239115.1,286046976.0,N
1514239135.8,286046974.1,N
1514239155.7,286046978.8,N
1514239175.5,286046974.6,N
1514239195.3,286046973.9,N
